Regional Weather Roundup
Issued by NWS Northern Indiana

Home | Current Version | Previous Version | Text Only | Print | Product List | Glossary On
Versions: 1 2 3 4 5 6 7 8 9 10 11 12 13 14 15 16 17 18 19 20 21 22 23 24 25 26 27 28 29 30 31 32 33 34 35 36 37 38 39 40 41 42 43 44 45 46 47 48 49 50
000
ASUS43 KIWX 180410
RWRIWX

KIWX WEATHER ROUNDUP
NATIONAL WEATHER SERVICE NORTHERN INDIANA
1100 PM EST WED DEC 17 2014

NOTE: "FAIR" INDICATES FEW OR NO CLOUDS BELOW 12,000 FEET WITH NO
SIGNIFICANT WEATHER AND/OR OBSTRUCTIONS TO VISIBILITY.

* THESE STATIONS ARE NOT UNDER NWS QUALITY CONTROL. THEY ALSO MAY NOT
  REPORT WEATHER SUCH AS PRECIPITATION OR FOG.

INZ001>027-180500-
NORTHERN INDIANA

CITY           SKY/WX    TMP DP  RH WIND       PRES   REMARKS
GARY*          CLOUDY    27  19  71 W6        30.29R WCI  21
VALPARAISO     CLOUDY    25  17  72 W8        30.27R WCI  16
MICHIGAN CITY* CLOUDY    28  18  64 W7        30.27R WCI  21
LAPORTE*       CLOUDY    28  21  75 W7        30.26S WCI  21
KNOX*          CLOUDY    26  19  73 W8        30.26S WCI  18
SOUTH BEND     CLOUDY    29  20  69 W7        30.25R WCI  22
GOSHEN         CLOUDY    27  21  78 W10       30.23R WCI  17
MONTICELLO*    CLOUDY    26  19  76 NW6       30.27S WCI  19
LOGANSPORT*    CLOUDY    27  18  69 NW5       30.28S WCI  21
ROCHESTER*     MOCLDY    30  23  74 W8        30.27R WCI  23
WARSAW*        CLOUDY    27  21  80 W9        30.24S WCI  17
ANGOLA*        CLOUDY    27  19  74 NW8       30.19S WCI  18
FORT WAYNE     CLOUDY    27  21  78 W13       30.24S WCI  16
HUNTINGTON*    CLOUDY    26  21  81 W8        30.25S WCI  17
PERU/GRISSOM   CLOUDY    26  20  79 NW7       30.26R WCI  18
MARION*        CLOUDY    26  21  83 NW8       30.27R WCI  17

$$
INZ028>050-180500-
CENTRAL INDIANA

CITY           SKY/WX    TMP DP  RH WIND       PRES   REMARKS
LAFAYETTE      CLOUDY    25  18  74 NW7       30.29S WCI  17
KOKOMO*        CLOUDY    27  18  69 NW7       30.26S WCI  19
MUNCIE*        CLOUDY    26  19  74 NW9       30.26S WCI  17
INDIANAPOLIS   FLURRIES  24  18  77 NW7       30.27S WCI  16

$$
MIZ043>046-050>051-056>058-064>065-071>073-077>080-180500-
SOUTHWEST LOWER MICHIGAN

CITY           SKY/WX    TMP DP  RH WIND       PRES   REMARKS
BATTLE CREEK   CLOUDY    29  19  66 W9        30.19R WCI  20
BENTON HARBOR  CLOUDY    28  20  71 W7        30.24R WCI  21
COLDWATER*     CLOUDY    28  21  75 W9        30.19R WCI  19
HILLSDALE*     CLOUDY    28  22  79 NW10G17   30.16S WCI  18
HOLLAND        CLOUDY    31  21  66 W10       30.21S WCI  22
GRAND RAPIDS   CLOUDY    29  21  72 W10       30.17S WCI  20
KALAMAZOO      CLOUDY    29  20  69 W7        30.20S WCI  22
STURGIS*       CLOUDY    27  21  80 W7        30.21R WCI  19
THREE RIVERS*  CLOUDY    29  21  73 NW12      30.22S WCI  19

$$
OHZ001>008-015>018-024>025-180500-
NORTHWEST OHIO

CITY           SKY/WX    TMP DP  RH WIND       PRES   REMARKS
WAUSEON*       CLOUDY    28  21  74 W10G18    30.20R WCI  19
FINDLAY        CLOUDY    28  22  78 W13       30.20R WCI  17
TOLEDO EXPRESS CLOUDY    29  20  69 W9        30.19S WCI  20
TOLEDO METCALF CLOUDY    30  18  60 W17       30.20S WCI  18
LIMA           CLOUDY    30  21  69 W14       30.22R WCI  19

$$
AND FOR LAKE MICHIGAN COASTAL AND OPEN LAKE BUOY OBSERVATIONS

STATION/POSITION TEMP    WIND        PRES    VSBY  WAVE
                 AIR SEA DIR/SP/G                  HT/PER
                 (F)     (DEG/KT/KT) (MB)    (MI)  (FT/S)
CALUMET HARBOR    25     270/  4/  6 1023.9R
SAINT JOSEPH      30     260/ 12/ 15 1025.1R

$$
&&


USA.gov is the U.S. government's official web portal to all federal, state and local government web resources and services.